Staples, MN

4:09 PM CDT on September 24, 2016 (GMT -0500)
Staples Municipal

Weather History for KSAZ - December, 2012

Change the Weather History Date:

Saturday, December 1, 2012

  Actual Average Record
Temperature  
Mean Temperature 34 °F -  
Max Temperature 41 °F 29 °F 51 °F (1998)
Min Temperature 28 °F 15 °F -14 °F (2014)
Degree Days  
Heating Degree Days 30    
Moisture  
Dew Point 32 °F    
Average Humidity 96    
Maximum Humidity 100    
Minimum Humidity 81    
Precipitation  
Precipitation 0.00 in - - ()
Sea Level Pressure  
Sea Level Pressure 29.77 in    
Wind  
Wind Speed 7 mph (SSE)    
Max Wind Speed 15 mph    
Max Gust Speed 23 mph    
Visibility 2 miles    
Events      
Averages and records for this station are not official NWS values.
T = Trace of Precipitation, MM = Missing Value Source: NWS Daily Summary

Daily Weather History Graph

Daily Weather History Graph

Search for Another Location

Airport or City:

Trip Planner

Search our weather history database for the weather conditions in past years. The results will help you decide how hot, cold, wet, or windy it might be!

Date:

Astronomy

Dec. 01, 2012 Rise Set
Actual Time 7:42 AM CST 4:34 PM CST
Civil Twilight 7:08 AM CST 5:08 PM CST
Nautical Twilight 6:30 AM CST 5:46 PM CST
Astronomical Twilight 5:54 AM CST 6:22 PM CST
Moon 7:28 PM CST (12/1) 9:53 AM CST (12/1)
Length of Visible Light 9h 59m
Length of Day
8h 51m
Waning Gibbous, 91% of the Moon is Illuminated
Dec 1
Waning Gibbous
Dec 6
Last Quarter
Dec 13
New
Dec 19
First Quarter
Dec 28
Full

Hourly Weather History & Observations

Time (CST) Temp. Windchill Dew Point Humidity Pressure Visibility Wind Dir Wind Speed Gust Speed Precip Events Conditions
12:14 AM 30.2 °F 21.9 °F 28.4 °F 93% 29.94 in 3.0 mi SSE 9.2 mph - N/A   Overcast
12:33 AM 30.2 °F 21.9 °F 28.4 °F 93% 29.94 in 2.5 mi SSE 9.2 mph - N/A   Overcast
1:13 AM 30.2 °F 21.9 °F 30.2 °F 100% 29.92 in 2.0 mi SSE 9.2 mph 17.3 mph N/A   Overcast
1:34 AM 30.2 °F 21.3 °F 30.2 °F 100% 29.91 in 2.0 mi SE 10.4 mph - N/A   Overcast
1:54 AM 30.2 °F 20.8 °F 30.2 °F 100% 29.91 in 2.0 mi SSE 11.5 mph 16.1 mph N/A   Overcast
2:13 AM 30.2 °F 20.8 °F 30.2 °F 100% 29.89 in 2.0 mi SSE 11.5 mph 18.4 mph N/A   Overcast
3:34 AM 30.2 °F 20.8 °F 30.2 °F 100% 29.82 in 1.8 mi SSE 11.5 mph 18.4 mph N/A   Overcast
4:13 AM 32.0 °F 21.6 °F 32.0 °F 100% 29.79 in 2.0 mi SSE 15.0 mph 23.0 mph N/A   Overcast
4:34 AM 32.0 °F 23.0 °F 32.0 °F 100% 29.79 in 1.8 mi SSE 11.5 mph 16.1 mph N/A   Overcast
5:13 AM 32.0 °F 23.0 °F 32.0 °F 100% 29.78 in 2.0 mi SSE 11.5 mph 17.3 mph N/A   Overcast
5:53 AM 33.8 °F 24.3 °F 32.0 °F 93% 29.77 in 1.2 mi SSE 13.8 mph 19.6 mph N/A   Overcast
6:13 AM 33.8 °F 25.8 °F 32.0 °F 93% 29.76 in 1.2 mi SSE 10.4 mph - N/A   Overcast
6:34 AM 33.8 °F 25.8 °F 33.8 °F 100% 29.75 in 1.2 mi SSE 10.4 mph 16.1 mph N/A   Overcast
7:13 AM 33.8 °F 25.8 °F 33.8 °F 100% 29.73 in 1.2 mi SSE 10.4 mph 19.6 mph N/A   Overcast
7:34 AM 33.8 °F 25.3 °F 33.8 °F 100% 29.73 in 1.5 mi SSE 11.5 mph 19.6 mph N/A   Overcast
7:53 AM 33.8 °F 25.8 °F 33.8 °F 100% 29.73 in 1.8 mi SSE 10.4 mph - N/A   Overcast
8:13 AM 33.8 °F 26.4 °F 33.8 °F 100% 29.74 in 1.8 mi SSE 9.2 mph - N/A   Overcast
8:34 AM 33.8 °F 27.7 °F 33.8 °F 100% 29.73 in 1.2 mi SSE 6.9 mph - N/A   Overcast
9:13 AM 35.6 °F 29.9 °F 33.8 °F 93% 29.73 in 1.5 mi SSE 6.9 mph - N/A   Overcast
9:34 AM 35.6 °F 29.9 °F 33.8 °F 93% 29.73 in 1.5 mi SSE 6.9 mph - N/A   Overcast
9:54 AM 35.6 °F 29.9 °F 33.8 °F 93% 29.72 in 1.8 mi SSE 6.9 mph - N/A   Overcast
10:13 AM 35.6 °F 30.7 °F 33.8 °F 93% 29.73 in 2.0 mi South 5.8 mph - N/A   Overcast
10:34 AM 35.6 °F 30.7 °F 33.8 °F 93% 29.73 in 2.0 mi SSE 5.8 mph - N/A   Overcast
11:13 AM 35.6 °F 29.2 °F 33.8 °F 93% 29.72 in 2.5 mi South 8.1 mph - N/A   Overcast
11:33 AM 37.4 °F 32.1 °F 33.8 °F 87% 29.72 in 2.5 mi South 6.9 mph - N/A   Overcast
12:13 PM 37.4 °F 32.8 °F 35.6 °F 93% 29.70 in 2.5 mi South 5.8 mph - N/A   Overcast
12:33 PM 37.4 °F - 35.6 °F 93% 29.69 in 3.0 mi Calm Calm - N/A   Overcast
12:54 PM 37.4 °F 32.1 °F 35.6 °F 93% 29.69 in 3.0 mi SSW 6.9 mph - N/A   Overcast
1:13 PM 37.4 °F 33.8 °F 35.6 °F 93% 29.68 in 3.0 mi SW 4.6 mph - N/A   Overcast
1:33 PM 39.2 °F - 35.6 °F 87% 29.69 in 3.0 mi Calm Calm - N/A   Mostly Cloudy
1:54 PM 39.2 °F - 35.6 °F 87% 29.68 in 4.0 mi Calm Calm - N/A   Scattered Clouds
2:13 PM 39.2 °F - 35.6 °F 87% 29.69 in 4.0 mi Calm Calm - N/A   Haze
2:33 PM 39.2 °F - 35.6 °F 87% 29.69 in 4.0 mi Calm Calm - N/A   Haze
2:54 PM 39.2 °F - 35.6 °F 87% 29.70 in 4.0 mi Calm Calm - N/A   Haze
3:13 PM 41.0 °F - 35.6 °F 81% 29.70 in 4.0 mi Calm Calm - N/A   Haze
3:33 PM 39.2 °F - 35.6 °F 87% 29.71 in 4.0 mi Calm Calm - N/A   Haze
4:13 PM 37.4 °F - 33.8 °F 87% 29.72 in 3.0 mi Calm Calm - N/A   Clear
4:33 PM 35.6 °F - 33.8 °F 93% 29.73 in 3.0 mi Calm Calm - N/A   Clear
4:54 PM 33.8 °F - 33.8 °F 100% 29.74 in 3.0 mi Calm Calm - N/A   Clear
5:13 PM 33.8 °F - 32.0 °F 93% 29.74 in 2.5 mi Calm Calm - N/A   Clear
5:33 PM 32.0 °F - 32.0 °F 100% 29.74 in 2.0 mi Calm Calm - N/A   Clear
5:54 PM 28.4 °F - 28.4 °F 100% 29.75 in 1.8 mi Calm Calm - N/A   Clear
6:13 PM 30.2 °F - 30.2 °F 100% 29.75 in 2.0 mi Calm Calm - N/A   Mist
6:33 PM 30.2 °F - 30.2 °F 100% 29.76 in 2.0 mi Calm Calm - N/A   Mist
6:54 PM 32.0 °F - 30.2 °F 93% 29.75 in 2.0 mi Calm Calm - N/A   Clear
7:13 PM 30.2 °F - 30.2 °F 100% 29.77 in 1.8 mi Calm Calm - N/A   Mist
7:34 PM 30.2 °F - 30.2 °F 100% 29.76 in 1.8 mi Calm Calm - N/A   Mist
7:53 PM 30.2 °F - 30.2 °F 100% 29.78 in 1.5 mi Calm Calm - N/A   Mist
8:13 PM 28.4 °F - 28.4 °F 100% 29.80 in 2.0 mi Calm Calm - N/A   Mist
8:34 PM 30.2 °F 24.3 °F 30.2 °F 100% 29.81 in 3.0 mi WNW 5.8 mph - N/A   Mist
8:53 PM 30.2 °F - 30.2 °F 100% 29.81 in 3.0 mi Calm Calm - N/A   Mist
9:13 PM 30.2 °F - 28.4 °F 93% 29.81 in 3.0 mi Calm Calm - N/A   Scattered Clouds
9:34 PM 30.2 °F - 28.4 °F 93% 29.81 in 2.5 mi Calm Calm - N/A   Overcast
9:53 PM 30.2 °F - 30.2 °F 100% 29.81 in 2.5 mi Calm Calm - N/A   Overcast
10:13 PM 30.2 °F - 30.2 °F 100% 29.82 in 2.5 mi Calm Calm - N/A   Mostly Cloudy
10:34 PM 30.2 °F - 30.2 °F 100% 29.83 in 3.0 mi Calm Calm - N/A   Scattered Clouds
10:53 PM 30.2 °F 26.7 °F 30.2 °F 100% 29.83 in 3.0 mi WNW 3.5 mph - N/A   Scattered Clouds
11:13 PM 30.2 °F - 30.2 °F 100% 29.83 in 2.5 mi Calm Calm - N/A   Scattered Clouds
11:34 PM 28.4 °F 23.3 °F 28.4 °F 100% 29.85 in 2.5 mi West 4.6 mph - N/A   Mostly Cloudy
11:53 PM 30.2 °F 26.7 °F 30.2 °F 100% 29.85 in 2.5 mi WNW 3.5 mph - N/A   Overcast